| time (UTC) | temp F | wind direction | speed MPH | gust MPH | rain 1hr in | rain 24hr in | rain mn in | humidity % | barometer mb |
| 20260510225212 | 66 | 139 | 0.0 | 0.0 | 0.00 | 0.02 | 0.02 | 87 | 1013.1 |
| 20260510224708 | 66 | 64 | 1.0 | 1.0 | 0.00 | 0.02 | 0.02 | 87 | 1012.9 |
| 20260510224204 | 66 | 152 | 0.0 | 0.0 | 0.00 | 0.02 | 0.02 | 87 | 1012.7 |
| 20260510223703 | 66 | 330 | 0.0 | 0.0 | 0.00 | 0.02 | 0.02 | 88 | 1012.7 |
| 20260510223159 | 66 | 330 | 0.0 | 1.0 | 0.00 | 0.02 | 0.02 | 87 | 1013.1 |
| 20260510222656 | 66 | 330 | 1.0 | 2.0 | 0.07 | 0.02 | 0.02 | 87 | 1012.8 |
| 20260510222153 | 66 | 245 | 1.0 | 2.0 | 0.07 | 0.02 | 0.02 | 87 | 1012.7 |
| 20260510221648 | 67 | 122 | 1.0 | 1.0 | 0.05 | 0.01 | 0.01 | 85 | 1012.8 |
| 20260510221145 | 68 | 92 | 2.0 | 3.0 | 0.05 | 0.01 | 0.01 | 82 | 1012.9 |
| 20260510220642 | 69 | 198 | 0.0 | 1.0 | 0.00 | 0.00 | 0.00 | 78 | 1013.1 |
| 20260510220137 | 70 | 276 | 1.0 | 2.0 | 0.00 | 0.00 | 0.00 | 74 | 1013.4 |
| 20260510215635 | 70 | 152 | 0.0 | 0.0 | 0.00 | 0.00 | 0.00 | 71 | 1013.1 |
| 20260510215133 | 71 | 258 | 1.0 | 1.0 | 0.00 | 0.00 | 0.00 | 69 | 1013.0 |
| 20260510214630 | 71 | 164 | 0.0 | 1.0 | 0.00 | 0.00 | 0.00 | 67 | 1013.0 |
| 20260510214126 | 71 | 172 | 0.0 | 1.0 | 0.00 | 0.00 | 0.00 | 67 | 1012.9 |
| 20260510213623 | 72 | 19 | 2.0 | 2.0 | 0.00 | 0.00 | 0.00 | 65 | 1012.8 |
| 20260510213119 | 73 | 151 | 0.0 | 0.0 | 0.00 | 0.00 | 0.00 | 64 | 1012.6 |
| 20260510212615 | 73 | 334 | 0.0 | 0.0 | 0.00 | 0.00 | 0.00 | 62 | 1012.3 |
| 20260510212108 | 74 | 274 | 0.0 | 1.0 | 0.00 | 0.00 | 0.00 | 60 | 1012.3 |
| 20260510211604 | 77 | 216 | 1.0 | 1.0 | 0.00 | 0.00 | 0.00 | 56 | 1012.3 |
| 20260510211104 | 79 | 199 | 1.0 | 1.0 | 0.00 | 0.00 | 0.00 | 51 | 1012.2 |
| 20260510210601 | 79 | 49 | 1.0 | 2.0 | 0.00 | 0.00 | 0.00 | 52 | 1012.2 |
| 20260510210056 | 78 | 235 | 1.0 | 1.0 | 0.00 | 0.00 | 0.00 | 51 | 1012.0 |
| 20260510205555 | 78 | 283 | 2.0 | 2.0 | 0.00 | 0.00 | 0.00 | 49 | 1012.1 |
| 20260510205051 | 79 | 211 | 1.0 | 1.0 | 0.00 | 0.00 | 0.00 | 52 | 1011.8 |
| 20260510204548 | 76 | 309 | 0.0 | 1.0 | 0.00 | 0.00 | 0.00 | 56 | 1011.8 |
| 20260510204045 | 75 | 169 | 0.0 | 0.0 | 0.00 | 0.00 | 0.00 | 57 | 1011.8 |
| 20260510203542 | 75 | 184 | 0.0 | 0.0 | 0.00 | 0.00 | 0.00 | 56 | 1012.0 |
| 20260510203039 | 75 | 176 | 0.0 | 0.0 | 0.00 | 0.00 | 0.00 | 58 | 1011.7 |
| 20260510202537 | 75 | 276 | 1.0 | 1.0 | 0.00 | 0.00 | 0.00 | 57 | 1012.0 |
| 20260510202034 | 75 | 222 | 0.0 | 0.0 | 0.00 | 0.00 | 0.00 | 58 | 1011.9 |
| 20260510201531 | 75 | 196 | 0.0 | 1.0 | 0.00 | 0.00 | 0.00 | 56 | 1012.0 |
| 20260510201028 | 76 | 214 | 1.0 | 1.0 | 0.00 | 0.00 | 0.00 | 56 | 1012.2 |
| 20260510200524 | 76 | 193 | 0.0 | 0.0 | 0.00 | 0.00 | 0.00 | 56 | 1012.2 |
| 20260510200021 | 75 | 214 | 0.0 | 0.0 | 0.00 | 0.00 | 0.00 | 57 | 1012.4 |
| 20260510195520 | 75 | 159 | 0.0 | 0.0 | 0.00 | 0.00 | 0.00 | 56 | 1012.5 |
| 20260510195015 | 75 | 211 | 0.0 | 1.0 | 0.00 | 0.00 | 0.00 | 55 | 1012.5 |
| 20260510194511 | 76 | 211 | 0.0 | 0.0 | 0.00 | 0.00 | 0.00 | 54 | 1012.5 |
| 20260510194006 | 76 | 143 | 0.0 | 0.0 | 0.00 | 0.00 | 0.00 | 54 | 1012.3 |
| 20260510193501 | 77 | 193 | 0.0 | 1.0 | 0.00 | 0.00 | 0.00 | 54 | 1012.2 |
| 20260510192957 | 76 | 193 | 0.0 | 0.0 | 0.00 | 0.00 | 0.00 | 51 | 1012.5 |
| 20260510192452 | 77 | 186 | 0.0 | 0.0 | 0.00 | 0.00 | 0.00 | 51 | 1012.5 |
| 20260510191948 | 77 | 274 | 2.0 | 2.0 | 0.00 | 0.00 | 0.00 | 49 | 1012.3 |
| 20260510191444 | 77 | 245 | 0.0 | 1.0 | 0.00 | 0.00 | 0.00 | 49 | 1012.4 |
| 20260510190942 | 77 | 219 | 1.0 | 1.0 | 0.00 | 0.00 | 0.00 | 49 | 1012.5 |
| 20260510190439 | 77 | 252 | 2.0 | 2.0 | 0.00 | 0.00 | 0.00 | 49 | 1012.5 |
| 20260510185936 | 77 | 209 | 1.0 | 1.0 | 0.00 | 0.00 | 0.00 | 49 | 1012.5 |
| 20260510185433 | 77 | 282 | 2.0 | 2.0 | 0.00 | 0.00 | 0.00 | 48 | 1012.6 |
| 20260510184930 | 78 | 173 | 1.0 | 1.0 | 0.00 | 0.00 | 0.00 | 48 | 1012.5 |
| 20260510184427 | 78 | 355 | 1.0 | 2.0 | 0.00 | 0.00 | 0.00 | 47 | 1012.6 |
| 20260510183926 | 78 | 205 | 1.0 | 1.0 | 0.00 | 0.00 | 0.00 | 48 | 1012.3 |
| 20260510183424 | 79 | 199 | 1.0 | 1.0 | 0.00 | 0.00 | 0.00 | 46 | 1012.2 |
| 20260510182918 | 78 | 271 | 2.0 | 3.0 | 0.00 | 0.00 | 0.00 | 45 | 1012.3 |
| 20260510182415 | 80 | 216 | 2.0 | 2.0 | 0.00 | 0.00 | 0.00 | 44 | 1012.3 |
| 20260510181911 | 79 | 203 | 1.0 | 2.0 | 0.00 | 0.00 | 0.00 | 45 | 1012.4 |
| 20260510181409 | 79 | 305 | 3.0 | 4.0 | 0.00 | 0.00 | 0.00 | 45 | 1012.3 |
| 20260510180905 | 79 | 19 | 1.0 | 1.0 | 0.00 | 0.00 | 0.00 | 45 | 1012.2 |
| 20260510180402 | 78 | 257 | 3.0 | 4.0 | 0.00 | 0.00 | 0.00 | 47 | 1012.5 |
| 20260510175859 | 79 | 161 | 1.0 | 2.0 | 0.00 | 0.00 | 0.00 | 46 | 1012.6 |
| 20260510175355 | 78 | 187 | 1.0 | 2.0 | 0.00 | 0.00 | 0.00 | 47 | 1012.5 |
| 20260510174850 | 78 | 274 | 2.0 | 3.0 | 0.00 | 0.00 | 0.00 | 46 | 1012.4 |
| 20260510174349 | 78 | 328 | 2.0 | 3.0 | 0.00 | 0.00 | 0.00 | 49 | 1012.5 |
| 20260510173845 | 78 | 188 | 1.0 | 2.0 | 0.00 | 0.00 | 0.00 | 49 | 1012.5 |
| 20260510173340 | 79 | 156 | 0.0 | 0.0 | 0.00 | 0.00 | 0.00 | 51 | 1012.4 |
| 20260510172837 | 79 | 189 | 0.0 | 0.0 | 0.00 | 0.00 | 0.00 | 49 | 1012.6 |
| 20260510172333 | 78 | 192 | 1.0 | 2.0 | 0.00 | 0.00 | 0.00 | 53 | 1012.8 |
| 20260510171830 | 78 | 285 | 1.0 | 1.0 | 0.00 | 0.00 | 0.00 | 50 | 1012.8 |
| 20260510171327 | 76 | 186 | 0.0 | 0.0 | 0.00 | 0.00 | 0.00 | 54 | 1012.8 |
| 20260510170824 | 77 | 224 | 3.0 | 4.0 | 0.00 | 0.00 | 0.00 | 55 | 1012.7 |
| 20260510170320 | 76 | 183 | 3.0 | 3.0 | 0.00 | 0.00 | 0.00 | 58 | 1012.7 |
| 20260510165815 | 77 | 180 | 1.0 | 1.0 | 0.00 | 0.00 | 0.00 | 55 | 1012.8 |
| 20260510165312 | 76 | 228 | 1.0 | 1.0 | 0.00 | 0.00 | 0.00 | 56 | 1013.0 |
| 20260510164809 | 75 | 158 | 0.0 | 0.0 | 0.00 | 0.00 | 0.00 | 58 | 1013.0 |
| 20260510164307 | 75 | 212 | 2.0 | 3.0 | 0.00 | 0.00 | 0.00 | 56 | 1013.0 |
| 20260510163801 | 75 | 213 | 1.0 | 1.0 | 0.00 | 0.00 | 0.00 | 59 | 1013.1 |
| 20260510163257 | 75 | 128 | 0.0 | 0.0 | 0.00 | 0.00 | 0.00 | 59 | 1012.8 |
| 20260510162756 | 75 | 190 | 2.0 | 4.0 | 0.00 | 0.00 | 0.00 | 58 | 1012.8 |
| 20260510162254 | 75 | 194 | 1.0 | 1.0 | 0.00 | 0.00 | 0.00 | 62 | 1013.2 |
| 20260510161749 | 74 | 118 | 1.0 | 1.0 | 0.00 | 0.00 | 0.00 | 64 | 1013.1 |
| 20260510161246 | 73 | 136 | 0.0 | 0.0 | 0.00 | 0.00 | 0.00 | 65 | 1012.9 |
| 20260510160743 | 72 | 146 | 0.0 | 1.0 | 0.00 | 0.00 | 0.00 | 66 | 1012.9 |
| 20260510160239 | 72 | 193 | 1.0 | 2.0 | 0.00 | 0.00 | 0.00 | 68 | 1013.1 |
| 20260510155734 | 71 | 112 | 0.0 | 1.0 | 0.00 | 0.00 | 0.00 | 69 | 1013.1 |
| 20260510155230 | 71 | 190 | 3.0 | 3.0 | 0.00 | 0.00 | 0.00 | 68 | 1013.5 |
| 20260510154727 | 72 | 178 | 0.0 | 1.0 | 0.00 | 0.00 | 0.00 | 69 | 1013.4 |
| 20260510154222 | 70 | 103 | 1.0 | 1.0 | 0.00 | 0.00 | 0.00 | 72 | 1013.5 |
| 20260510153718 | 70 | 124 | 1.0 | 2.0 | 0.00 | 0.00 | 0.00 | 72 | 1013.5 |
| 20260510153214 | 69 | 198 | 0.0 | 0.0 | 0.00 | 0.00 | 0.00 | 74 | 1013.5 |
| 20260510152711 | 68 | 200 | 0.0 | 1.0 | 0.00 | 0.00 | 0.00 | 75 | 1013.4 |
| 20260510152206 | 69 | 150 | 1.0 | 1.0 | 0.00 | 0.00 | 0.00 | 76 | 1013.4 |
| 20260510151704 | 68 | 205 | 0.0 | 0.0 | 0.00 | 0.00 | 0.00 | 77 | 1013.6 |
| 20260510151202 | 67 | 165 | 0.0 | 0.0 | 0.00 | 0.00 | 0.00 | 80 | 1013.4 |
| 20260510150657 | 66 | 297 | 1.0 | 2.0 | 0.00 | 0.00 | 0.00 | 79 | 1013.5 |
| 20260510150153 | 66 | 187 | 1.0 | 1.0 | 0.00 | 0.00 | 0.00 | 79 | 1013.8 |
| 20260510145649 | 65 | 201 | 0.0 | 0.0 | 0.00 | 0.00 | 0.00 | 82 | 1013.7 |
| 20260510145146 | 65 | 201 | 1.0 | 1.0 | 0.00 | 0.00 | 0.00 | 82 | 1013.5 |
| 20260510144642 | 64 | 196 | 4.0 | 4.0 | 0.00 | 0.00 | 0.00 | 81 | 1013.7 |
| 20260510144139 | 65 | 190 | 1.0 | 3.0 | 0.00 | 0.00 | 0.00 | 82 | 1013.7 |
| 20260510143634 | 63 | 154 | 1.0 | 1.0 | 0.00 | 0.00 | 0.00 | 91 | 1013.7 |
| 20260510143131 | 61 | 132 | 0.0 | 1.0 | 0.00 | 0.00 | 0.00 | 99 | 1013.8 |
| 20260510142627 | 61 | 119 | 1.0 | 1.0 | 0.00 | 0.00 | 0.00 | 99 | 1013.5 |
| 20260510142124 | 60 | 126 | 1.0 | 1.0 | 0.00 | 0.00 | 0.00 | 99 | 1013.8 |
| 20260510141620 | 59 | 134 | 0.0 | 1.0 | 0.00 | 0.00 | 0.00 | 99 | 1013.7 |
| 20260510141120 | 58 | 196 | 0.0 | 1.0 | 0.00 | 0.00 | 0.00 | 99 | 1013.7 |
| 20260510140615 | 57 | 197 | 0.0 | 0.0 | 0.00 | 0.00 | 0.00 | 99 | 1013.8 |
| 20260510140114 | 57 | 208 | 1.0 | 1.0 | 0.00 | 0.00 | 0.00 | 99 | 1013.8 |
| 20260510135610 | 57 | 156 | 0.0 | 0.0 | 0.00 | 0.00 | 0.00 | 99 | 1013.7 |
| 20260510135106 | 56 | 182 | 3.0 | 3.0 | 0.00 | 0.00 | 0.00 | 99 | 1013.8 |
| 20260510134603 | 56 | 182 | 1.0 | 2.0 | 0.00 | 0.00 | 0.00 | 99 | 1013.6 |
| 20260510134100 | 56 | 176 | 1.0 | 1.0 | 0.00 | 0.00 | 0.00 | 99 | 1013.6 |
| 20260510133556 | 55 | 218 | 1.0 | 1.0 | 0.00 | 0.00 | 0.00 | 99 | 1013.6 |
| 20260510133052 | 55 | 185 | 1.0 | 1.0 | 0.00 | 0.00 | 0.00 | 99 | 1013.5 |
| 20260510132549 | 55 | 221 | 0.0 | 0.0 | 0.00 | 0.00 | 0.00 | 99 | 1013.9 |
| 20260510132046 | 54 | 220 | 0.0 | 0.0 | 0.00 | 0.00 | 0.00 | 99 | 1013.8 |
| 20260510131544 | 54 | 112 | 1.0 | 2.0 | 0.00 | 0.00 | 0.00 | 99 | 1013.8 |
| 20260510131041 | 54 | 193 | 0.0 | 0.0 | 0.00 | 0.00 | 0.00 | 99 | 1013.7 |
| 20260510130537 | 54 | 193 | 0.0 | 0.0 | 0.00 | 0.00 | 0.00 | 99 | 1013.6 |
| 20260510130035 | 54 | 193 | 0.0 | 0.0 | 0.00 | 0.00 | 0.00 | 99 | 1013.7 |
| 20260510125531 | 54 | 193 | 0.0 | 0.0 | 0.00 | 0.00 | 0.00 | 99 | 1013.6 |
| 20260510125027 | 54 | 193 | 0.0 | 0.0 | 0.00 | 0.00 | 0.00 | 99 | 1013.5 |
| 20260510124524 | 54 | 193 | 0.0 | 0.0 | 0.00 | 0.00 | 0.00 | 99 | 1013.2 |
| 20260510124021 | 53 | 194 | 0.0 | 0.0 | 0.00 | 0.00 | 0.00 | 99 | 1013.4 |
| 20260510123516 | 53 | 188 | 0.0 | 0.0 | 0.00 | 0.00 | 0.00 | 99 | 1013.5 |
| 20260510123012 | 53 | 157 | 0.0 | 0.0 | 0.00 | 0.00 | 0.00 | 99 | 1013.3 |
| 20260510122509 | 53 | 131 | 0.0 | 1.0 | 0.00 | 0.00 | 0.00 | 99 | 1013.3 |
| 20260510122004 | 53 | 174 | 0.0 | 0.0 | 0.00 | 0.00 | 0.00 | 99 | 1013.2 |
| 20260510121502 | 53 | 169 | 0.0 | 1.0 | 0.00 | 0.00 | 0.00 | 99 | 1013.1 |
| 20260510120959 | 52 | 132 | 0.0 | 0.0 | 0.00 | 0.00 | 0.00 | 99 | 1013.1 |
| 20260510120456 | 52 | 132 | 0.0 | 0.0 | 0.00 | 0.00 | 0.00 | 99 | 1013.1 |
| 20260510115951 | 52 | 201 | 0.0 | 1.0 | 0.00 | 0.00 | 0.00 | 99 | 1013.1 |
| 20260510115449 | 52 | 194 | 0.0 | 0.0 | 0.00 | 0.00 | 0.00 | 99 | 1013.1 |
| 20260510114945 | 52 | 187 | 0.0 | 0.0 | 0.00 | 0.00 | 0.00 | 99 | 1013.1 |
| 20260510114442 | 52 | 230 | 0.0 | 0.0 | 0.00 | 0.00 | 0.00 | 99 | 1012.8 |
| 20260510113937 | 52 | 176 | 0.0 | 0.0 | 0.00 | 0.00 | 0.00 | 99 | 1013.0 |
| 20260510113433 | 52 | 128 | 0.0 | 0.0 | 0.00 | 0.00 | 0.00 | 99 | 1013.1 |
| 20260510112931 | 52 | 124 | 0.0 | 0.0 | 0.00 | 0.00 | 0.00 | 99 | 1012.8 |
| 20260510112428 | 51 | 130 | 0.0 | 0.0 | 0.00 | 0.00 | 0.00 | 99 | 1012.7 |
| 20260510111923 | 51 | 134 | 0.0 | 0.0 | 0.00 | 0.00 | 0.00 | 99 | 1012.6 |
| 20260510111420 | 51 | 136 | 0.0 | 0.0 | 0.00 | 0.00 | 0.00 | 99 | 1012.7 |
| 20260510110916 | 51 | 73 | 2.0 | 2.0 | 0.00 | 0.00 | 0.00 | 99 | 1012.6 |
| 20260510110412 | 51 | 125 | 1.0 | 1.0 | 0.00 | 0.00 | 0.00 | 99 | 1012.6 |
| 20260510105908 | 51 | 101 | 2.0 | 2.0 | 0.00 | 0.00 | 0.00 | 99 | 1012.5 |
| 20260510105403 | 51 | 102 | 1.0 | 1.0 | 0.00 | 0.00 | 0.00 | 99 | 1012.2 |
| 20260510104859 | 51 | 143 | 0.0 | 0.0 | 0.00 | 0.00 | 0.00 | 99 | 1012.2 |
| 20260510104356 | 51 | 131 | 0.0 | 1.0 | 0.00 | 0.00 | 0.00 | 99 | 1012.3 |
| 20260510103852 | 51 | 83 | 1.0 | 1.0 | 0.00 | 0.00 | 0.00 | 99 | 1012.3 |
| 20260510103349 | 51 | 129 | 0.0 | 0.0 | 0.00 | 0.00 | 0.00 | 99 | 1012.2 |
| 20260510102844 | 51 | 93 | 1.0 | 1.0 | 0.00 | 0.00 | 0.00 | 99 | 1012.1 |
| 20260510102335 | 51 | 150 | 1.0 | 1.0 | 0.00 | 0.00 | 0.00 | 99 | 1012.3 |
| 20260510101832 | 51 | 134 | 0.0 | 0.0 | 0.00 | 0.00 | 0.00 | 99 | 1012.5 |
| 20260510101331 | 51 | 119 | 0.0 | 0.0 | 0.00 | 0.00 | 0.00 | 99 | 1012.4 |
| 20260510100826 | 51 | 114 | 1.0 | 1.0 | 0.00 | 0.00 | 0.00 | 99 | 1012.5 |
| 20260510100324 | 51 | 161 | 0.0 | 0.0 | 0.00 | 0.00 | 0.00 | 99 | 1012.3 |
| 20260510095820 | 51 | 71 | 2.0 | 2.0 | 0.00 | 0.00 | 0.00 | 99 | 1012.1 |
| 20260510095314 | 51 | 116 | 0.0 | 0.0 | 0.00 | 0.00 | 0.00 | 99 | 1011.9 |
| 20260510094809 | 51 | 89 | 1.0 | 1.0 | 0.00 | 0.00 | 0.00 | 99 | 1012.0 |
| 20260510094304 | 51 | 70 | 1.0 | 1.0 | 0.00 | 0.00 | 0.00 | 99 | 1012.1 |
| 20260510093801 | 51 | 133 | 1.0 | 1.0 | 0.00 | 0.00 | 0.00 | 99 | 1012.2 |
| 20260510093257 | 51 | 134 | 0.0 | 1.0 | 0.00 | 0.00 | 0.00 | 99 | 1011.6 |
| 20260510092753 | 50 | 49 | 2.0 | 2.0 | 0.00 | 0.00 | 0.00 | 99 | 1011.7 |
| 20260510092249 | 50 | 194 | 0.0 | 1.0 | 0.00 | 0.00 | 0.00 | 99 | 1011.9 |
| 20260510091745 | 50 | 90 | 1.0 | 1.0 | 0.00 | 0.00 | 0.00 | 99 | 1011.8 |
| 20260510091243 | 50 | 146 | 0.0 | 0.0 | 0.00 | 0.00 | 0.00 | 99 | 1011.4 |
| 20260510090739 | 50 | 121 | 0.0 | 0.0 | 0.00 | 0.00 | 0.00 | 99 | 1011.1 |
| 20260510090236 | 50 | 146 | 0.0 | 0.0 | 0.00 | 0.00 | 0.00 | 99 | 1011.1 |
| 20260510085731 | 50 | 128 | 0.0 | 0.0 | 0.00 | 0.00 | 0.00 | 99 | 1011.0 |
| 20260510085226 | 50 | 128 | 0.0 | 0.0 | 0.00 | 0.00 | 0.00 | 99 | 1011.3 |
| 20260510084722 | 50 | 128 | 0.0 | 0.0 | 0.00 | 0.00 | 0.00 | 99 | 1011.4 |
| 20260510084219 | 50 | 127 | 0.0 | 0.0 | 0.00 | 0.00 | 0.00 | 99 | 1011.2 |
| 20260510083716 | 49 | 134 | 0.0 | 0.0 | 0.00 | 0.00 | 0.00 | 99 | 1011.3 |
| 20260510083213 | 49 | 134 | 0.0 | 0.0 | 0.00 | 0.00 | 0.00 | 99 | 1011.0 |
| 20260510082708 | 49 | 121 | 0.0 | 0.0 | 0.00 | 0.00 | 0.00 | 99 | 1011.3 |
| 20260510082205 | 49 | 140 | 0.0 | 0.0 | 0.00 | 0.00 | 0.00 | 99 | 1011.5 |
| 20260510081659 | 48 | 131 | 0.0 | 0.0 | 0.00 | 0.00 | 0.00 | 99 | 1011.4 |
| 20260510081154 | 48 | 132 | 0.0 | 0.0 | 0.00 | 0.00 | 0.00 | 99 | 1011.0 |
| 20260510080649 | 48 | 131 | 0.0 | 0.0 | 0.00 | 0.00 | 0.00 | 99 | 1011.2 |
| 20260510080146 | 48 | 132 | 0.0 | 0.0 | 0.00 | 0.00 | 0.00 | 99 | 1011.2 |
| 20260510075643 | 48 | 131 | 0.0 | 0.0 | 0.00 | 0.00 | 0.00 | 99 | 1011.0 |
| 20260510075140 | 47 | 121 | 0.0 | 1.0 | 0.00 | 0.00 | 0.00 | 99 | 1011.1 |
| 20260510074637 | 47 | 128 | 0.0 | 0.0 | 0.00 | 0.00 | 0.00 | 99 | 1011.1 |
| 20260510074133 | 47 | 147 | 0.0 | 0.0 | 0.00 | 0.00 | 0.00 | 99 | 1010.6 |
| 20260510073630 | 47 | 146 | 0.0 | 0.0 | 0.00 | 0.00 | 0.00 | 99 | 1010.6 |
| 20260510073126 | 47 | 166 | 0.0 | 0.0 | 0.00 | 0.00 | 0.00 | 99 | 1010.7 |
| 20260510072622 | 47 | 181 | 0.0 | 0.0 | 0.00 | 0.00 | 0.00 | 99 | 1010.5 |
| 20260510072119 | 47 | 181 | 0.0 | 0.0 | 0.00 | 0.00 | 0.00 | 99 | 1010.5 |
| 20260510071614 | 47 | 181 | 0.0 | 0.0 | 0.00 | 0.00 | 0.00 | 99 | 1010.6 |
| 20260510071112 | 47 | 181 | 0.0 | 0.0 | 0.00 | 0.00 | 0.00 | 99 | 1010.3 |
| 20260510070608 | 47 | 181 | 0.0 | 0.0 | 0.00 | 0.00 | 0.00 | 99 | 1010.5 |
| 20260510070106 | 47 | 181 | 0.0 | 0.0 | 0.00 | 0.00 | 0.00 | 99 | 1010.7 |
| 20260510065557 | 47 | 181 | 0.0 | 0.0 | 0.00 | 0.00 | 0.00 | 99 | 1010.5 |
| 20260510065053 | 47 | 181 | 0.0 | 0.0 | 0.00 | 0.00 | 0.00 | 99 | 1010.6 |
| 20260510064549 | 47 | 181 | 0.0 | 0.0 | 0.00 | 0.00 | 0.00 | 99 | 1010.7 |
| 20260510064046 | 47 | 181 | 0.0 | 0.0 | 0.00 | 0.00 | 0.00 | 99 | 1010.6 |
| 20260510063544 | 47 | 181 | 0.0 | 0.0 | 0.00 | 0.00 | 0.00 | 99 | 1010.8 |
| 20260510063040 | 47 | 156 | 0.0 | 0.0 | 0.00 | 0.00 | 0.00 | 99 | 1010.7 |
| 20260510062536 | 47 | 156 | 0.0 | 0.0 | 0.00 | 0.00 | 0.00 | 99 | 1010.6 |
| 20260510062032 | 47 | 134 | 0.0 | 0.0 | 0.00 | 0.00 | 0.00 | 99 | 1010.7 |
| 20260510061528 | 47 | 134 | 0.0 | 0.0 | 0.00 | 0.00 | 0.00 | 99 | 1010.7 |
| 20260510061025 | 48 | 134 | 0.0 | 0.0 | 0.00 | 0.00 | 0.00 | 99 | 1010.5 |
| 20260510060521 | 48 | 134 | 0.0 | 0.0 | 0.00 | 0.00 | 0.00 | 99 | 1010.6 |
| 20260510060018 | 48 | 134 | 0.0 | 0.0 | 0.00 | 0.00 | 0.00 | 99 | 1010.5 |
| 20260510055514 | 48 | 134 | 0.0 | 0.0 | 0.00 | 0.00 | 0.00 | 99 | 1010.7 |
| 20260510055012 | 48 | 134 | 0.0 | 0.0 | 0.00 | 0.00 | 0.00 | 99 | 1011.1 |
| 20260510054507 | 48 | 134 | 0.0 | 0.0 | 0.00 | 0.00 | 0.00 | 99 | 1010.8 |
| 20260510054003 | 48 | 134 | 0.0 | 0.0 | 0.00 | 0.00 | 0.00 | 99 | 1011.1 |
| 20260510053457 | 48 | 134 | 0.0 | 0.0 | 0.00 | 0.00 | 0.00 | 99 | 1010.9 |
| 20260510052954 | 48 | 134 | 0.0 | 0.0 | 0.00 | 0.00 | 0.00 | 99 | 1011.2 |
| 20260510052451 | 48 | 134 | 0.0 | 0.0 | 0.00 | 0.00 | 0.00 | 99 | 1011.0 |
| 20260510051947 | 48 | 134 | 0.0 | 0.0 | 0.00 | 0.00 | 0.00 | 99 | 1011.0 |
| 20260510051443 | 49 | 134 | 0.0 | 0.0 | 0.00 | 0.00 | 0.00 | 99 | 1010.7 |
| 20260510050939 | 49 | 134 | 0.0 | 0.0 | 0.00 | 0.00 | 0.00 | 99 | 1011.1 |
| 20260510050436 | 49 | 134 | 0.0 | 0.0 | 0.00 | 0.00 | 0.00 | 99 | 1011.3 |
| 20260510045934 | 49 | 134 | 0.0 | 0.0 | 0.00 | 0.00 | 0.00 | 99 | 1011.1 |
| 20260510045431 | 49 | 134 | 0.0 | 0.0 | 0.00 | 0.00 | 0.00 | 99 | 1011.1 |
| 20260510044927 | 50 | 134 | 0.0 | 0.0 | 0.00 | 0.00 | 0.00 | 99 | 1011.2 |
| 20260510044424 | 50 | 134 | 0.0 | 0.0 | 0.00 | 0.00 | 0.00 | 99 | 1011.1 |
| 20260510043921 | 50 | 134 | 0.0 | 0.0 | 0.00 | 0.00 | 0.00 | 99 | 1011.1 |
| 20260510043417 | 50 | 134 | 0.0 | 0.0 | 0.00 | 0.00 | 0.00 | 99 | 1011.3 |
| 20260510042915 | 50 | 134 | 0.0 | 0.0 | 0.00 | 0.00 | 0.00 | 99 | 1011.2 |
| 20260510042411 | 50 | 134 | 0.0 | 0.0 | 0.00 | 0.00 | 0.00 | 99 | 1011.3 |
| 20260510041907 | 50 | 134 | 0.0 | 0.0 | 0.00 | 0.00 | 0.00 | 99 | 1011.2 |
| 20260510041404 | 50 | 134 | 0.0 | 0.0 | 0.00 | 0.00 | 0.00 | 99 | 1011.2 |
| 20260510040902 | 50 | 134 | 0.0 | 0.0 | 0.00 | 0.00 | 0.00 | 99 | 1011.3 |
| 20260510040358 | 50 | 134 | 0.0 | 0.0 | 0.00 | 0.00 | 0.00 | 99 | 1011.1 |
| 20260510035854 | 51 | 133 | 0.0 | 0.0 | 0.00 | 0.03 | 0.03 | 99 | 1011.4 |
| 20260510035350 | 51 | 170 | 0.0 | 0.0 | 0.00 | 0.03 | 0.03 | 99 | 1011.2 |
| 20260510034845 | 51 | 170 | 0.0 | 0.0 | 0.00 | 0.03 | 0.03 | 99 | 1011.1 |
| 20260510034343 | 51 | 170 | 0.0 | 0.0 | 0.00 | 0.03 | 0.03 | 99 | 1011.0 |
| 20260510033839 | 52 | 170 | 0.0 | 0.0 | 0.00 | 0.03 | 0.03 | 99 | 1011.0 |
| 20260510033336 | 51 | 170 | 0.0 | 0.0 | 0.00 | 0.03 | 0.03 | 99 | 1010.9 |
| 20260510032833 | 51 | 170 | 0.0 | 0.0 | 0.00 | 0.03 | 0.03 | 99 | 1011.1 |
| 20260510032330 | 51 | 170 | 0.0 | 0.0 | 0.00 | 0.03 | 0.03 | 99 | 1010.9 |
| 20260510031825 | 51 | 170 | 0.0 | 0.0 | 0.00 | 0.03 | 0.03 | 99 | 1010.8 |
| 20260510031321 | 51 | 170 | 0.0 | 0.0 | 0.00 | 0.03 | 0.03 | 99 | 1010.8 |
| 20260510030815 | 51 | 170 | 0.0 | 0.0 | 0.00 | 0.03 | 0.03 | 99 | 1010.8 |
| 20260510030312 | 51 | 170 | 0.0 | 0.0 | 0.00 | 0.03 | 0.03 | 99 | 1010.7 |
| 20260510025809 | 51 | 170 | 0.0 | 0.0 | 0.00 | 0.03 | 0.03 | 99 | 1010.8 |
| 20260510025307 | 52 | 171 | 0.0 | 0.0 | 0.00 | 0.03 | 0.03 | 99 | 1010.8 |
| 20260510024803 | 52 | 171 | 0.0 | 0.0 | 0.00 | 0.03 | 0.03 | 99 | 1010.8 |
| 20260510024300 | 52 | 171 | 0.0 | 0.0 | 0.00 | 0.03 | 0.03 | 99 | 1010.9 |
| 20260510023756 | 52 | 171 | 0.0 | 0.0 | 0.00 | 0.03 | 0.03 | 99 | 1010.6 |
| 20260510023252 | 52 | 175 | 0.0 | 0.0 | 0.00 | 0.03 | 0.03 | 99 | 1010.5 |
| 20260510022749 | 52 | 176 | 0.0 | 0.0 | 0.07 | 0.03 | 0.03 | 99 | 1010.8 |
| 20260510022244 | 52 | 176 | 0.0 | 0.0 | 0.07 | 0.03 | 0.03 | 98 | 1010.8 |
| 20260510021743 | 53 | 176 | 0.0 | 0.0 | 0.00 | 0.02 | 0.02 | 98 | 1010.8 |
| 20260510021241 | 53 | 176 | 0.0 | 0.0 | 0.00 | 0.02 | 0.02 | 98 | 1010.7 |
| 20260510020736 | 53 | 176 | 0.0 | 0.0 | 0.00 | 0.02 | 0.02 | 98 | 1010.6 |
| 20260510020226 | 53 | 167 | 0.0 | 0.0 | 0.00 | 0.02 | 0.02 | 98 | 1010.7 |
| 20260510015722 | 52 | 167 | 0.0 | 0.0 | 0.00 | 0.02 | 0.02 | 98 | 1010.8 |
| 20260510015218 | 52 | 167 | 0.0 | 0.0 | 0.00 | 0.02 | 0.02 | 98 | 1010.6 |
| 20260510014714 | 52 | 167 | 0.0 | 0.0 | 0.00 | 0.02 | 0.02 | 98 | 1010.7 |
| 20260510014211 | 52 | 167 | 0.0 | 0.0 | 0.00 | 0.02 | 0.02 | 98 | 1010.8 |
| 20260510013706 | 53 | 167 | 0.0 | 0.0 | 0.00 | 0.02 | 0.02 | 98 | 1010.7 |
| 20260510013202 | 53 | 167 | 0.0 | 0.0 | 0.00 | 0.02 | 0.02 | 98 | 1010.5 |
| 20260510012701 | 53 | 167 | 0.0 | 0.0 | 0.00 | 0.02 | 0.02 | 97 | 1010.7 |
| 20260510012152 | 53 | 167 | 0.0 | 0.0 | 0.00 | 0.02 | 0.02 | 97 | 1010.6 |
| 20260510011647 | 53 | 167 | 0.0 | 0.0 | 0.00 | 0.02 | 0.02 | 97 | 1010.5 |
| 20260510011143 | 53 | 167 | 0.0 | 0.0 | 0.00 | 0.02 | 0.02 | 97 | 1010.5 |
| 20260510010638 | 53 | 167 | 0.0 | 0.0 | 0.00 | 0.02 | 0.02 | 97 | 1010.6 |
| 20260510010136 | 54 | 138 | 0.0 | 0.0 | 0.00 | 0.02 | 0.02 | 97 | 1010.4 |
| 20260510005632 | 54 | 137 | 0.0 | 0.0 | 0.00 | 0.02 | 0.02 | 97 | 1010.5 |
| 20260510005129 | 54 | 137 | 0.0 | 0.0 | 0.00 | 0.02 | 0.02 | 96 | 1010.4 |
| 20260510004627 | 54 | 166 | 0.0 | 0.0 | 0.00 | 0.02 | 0.02 | 96 | 1010.5 |
| 20260510004125 | 55 | 166 | 0.0 | 0.0 | 0.00 | 0.02 | 0.02 | 96 | 1010.5 |
| 20260510003622 | 55 | 167 | 0.0 | 0.0 | 0.00 | 0.02 | 0.02 | 96 | 1010.5 |
| 20260510003118 | 55 | 167 | 0.0 | 0.0 | 0.00 | 0.02 | 0.02 | 95 | 1010.3 |
| 20260510002612 | 55 | 166 | 0.0 | 0.0 | 0.00 | 0.02 | 0.02 | 95 | 1010.1 |
| 20260510002110 | 55 | 146 | 0.0 | 0.0 | 0.00 | 0.02 | 0.02 | 95 | 1010.2 |
| 20260510001607 | 56 | 146 | 0.0 | 0.0 | 0.00 | 0.02 | 0.02 | 94 | 1010.2 |
| 20260510001106 | 56 | 146 | 0.0 | 0.0 | 0.00 | 0.02 | 0.02 | 94 | 1010.3 |
| 20260510000605 | 56 | 162 | 0.0 | 0.0 | 0.00 | 0.02 | 0.02 | 93 | 1010.2 |
| 20260509235559 | 57 | 162 | 0.0 | 0.0 | 0.00 | 0.02 | 0.02 | 92 | 1010.4 |
| 20260509235056 | 57 | 162 | 0.0 | 0.0 | 0.00 | 0.02 | 0.02 | 92 | 1010.3 |
| 20260509234552 | 57 | 162 | 0.0 | 0.0 | 0.00 | 0.02 | 0.02 | 91 | 1010.1 |
| 20260509234050 | 58 | 127 | 0.0 | 0.0 | 0.00 | 0.02 | 0.02 | 91 | 1010.2 |
| 20260509233547 | 58 | 127 | 0.0 | 0.0 | 0.00 | 0.02 | 0.02 | 90 | 1010.1 |
| 20260509233044 | 58 | 138 | 1.0 | 1.0 | 0.00 | 0.02 | 0.02 | 90 | 1010.1 |
| 20260509232541 | 59 | 157 | 0.0 | 0.0 | 0.00 | 0.02 | 0.02 | 89 | 1009.8 |
| 20260509232038 | 59 | 143 | 0.0 | 0.0 | 0.00 | 0.02 | 0.02 | 89 | 1009.7 |
| 20260509231534 | 59 | 119 | 2.0 | 2.0 | 0.00 | 0.02 | 0.02 | 89 | 1009.7 |
| 20260509231032 | 59 | 128 | 1.0 | 1.0 | 0.00 | 0.02 | 0.02 | 89 | 1009.7 |
| 20260509230528 | 59 | 129 | 1.0 | 1.0 | 0.00 | 0.02 | 0.02 | 89 | 1009.9 |
| 20260509230026 | 59 | 112 | 1.0 | 2.0 | 0.00 | 0.02 | 0.02 | 90 | 1010.0 |